667  
ASUS44 KEWX 290911  
RWREWX  
SOUTH TEXAS REGIONAL WEATHER ROUNDUP  
NATIONAL WEATHER SERVICE AUSTIN/SAN ANTONIO TX  
400 AM CDT SAT APR 29 2017  
 
NOTE: "FAIR" INDICATED FEW OR NO CLOUDS BELOW 12,000 FEET WITH NO  
SIGNIFICANT WEATHER AND/OR S TO VISIBILITY
.  
 
* - THESE STATIONS ARE NOT NWS OR FAA STATIONS...AND ARE NOT SUBJECT  
TO NWS AND FAA QUALITY CONTROL.
 
 
TXZ171-172-183>190-291000-  
TEXAS HILL COUNTRY AND EDWARDS PLATEAU  
 
CITY SKY/WX TMP DP RH WIND PRES REMARKS
 
JUNCTION CLOUDY 75 67 76 SE15G21 29.54F  
*LLANO CLOUDY 75 68 78 SE5 29.61S  
BURNET CLOUDY 75 68 78 S17G31 29.62R  
*HORSESHOE BAY CLOUDY 75 69 79 S13G23 29.59S  
*KERRVILLE CLOUDY 73 69 88 SE20G29 29.60F  
*FREDERICKSBRG CLOUDY 73 65 77 S10G20 29.61S  
*ROCKSPRINGS CLOUDY 72 68 88 S13G20 29.59S FOG  
*BOERNE STAGE CLOUDY 72 68 88 S12G17 29.63S  
*CASTROVILLE CLOUDY 76 68 75 SE12G18 29.59F  
HONDO CLOUDY 76 70 82 SE14 29.57F  
*UVALDE MOCLDY 74 70 88 E13 29.55F  
DEL RIO CLEAR 77 67 71 SE9 29.49R  
LAUGHLIN AFB CLEAR 75 72 89 SE12 29.50R  
CARRIZO SPRGS MOCLDY 73 70 88 E7 29.50S  
*EAGLE PASS NOT AVBL  

 
 
TXZ173-191>194-202-209-217>225-228-291000-  
CENTRAL AND SOUTH CENTRAL TEXAS  
 
CITY SKY/WX TMP DP RH WIND PRES REMARKS
 
GEORGETOWN CLOUDY 75 70 83 SE10 29.60F  
AUSTIN/BERGSTM CLOUDY 79 72 79 S14 29.59F  
AUSTIN/MABRY CLOUDY 77 71 82 S8 29.61F HAZE  
*AUSTIN/EXEC CLOUDY 77 73 88 S13 29.61S  
*LAGO VISTA CLOUDY 75 71 86 S7G23 29.62S FOG  
SAN MARCOS CLOUDY 75 72 88 S14 29.62S  
NEW BRAUNFELS CLOUDY 77 71 82 S12 29.60S HAZE  
RANDOLPH AFB CLOUDY 76 75 98 SE15 29.60S  
PT SAN ANTONIO CLOUDY 77 70 79 SE15G22 29.58S  
SAN ANTONIO CLOUDY 76 70 82 SE14 29.61S  
STINSON FIELD CLOUDY 78 70 76 SE13 29.57F  
*LA GRANGE CLOUDY 80 75 86 SE10 29.60S HAZE  
*GIDDINGS CLOUDY 77 73 85 S10 29.62F HAZE  
*GONZALES CLOUDY 79 75 89 S16G22 29.59F  

 
 
TXZ163>164-176>182-195>201-210>213-226-227-235-291000-  
SOUTHEAST TEXAS  
 
CITY SKY/WX TMP DP RH WIND PRES REMARKS
 
COLLEGE STN CLOUDY 79 74 84 SE16G24 29.62F HAZE  
*BRYAN CLOUDY 77 73 87 SE17G28 29.64S  
*CALDWELL NOT AVBL  
*CROCKETT MOCLDY 77 73 88 SE13G23 29.69S  
*BRENHAM CLOUDY 80 74 83 S16G22 29.63F HAZE  
HUNTSVILLE CLOUDY 80 72 76 SE8 29.65F  
CONROE LGT RAIN 79 73 82 SE20G32 29.67S  
HOUSTON BUSH CLOUDY 80 73 79 SE22G35 29.66F  
HOUSTON HOBBY CLOUDY 79 74 84 SE16G29 29.66F  
*HOUSTON SW AP CLOUDY 77 73 87 SE15G29 29.67S  
PEARLAND CLOUDY 81 74 79 SE18G30 29.67F  
HOUSTON HOOKS CLOUDY 80 73 79 S10G18 29.66S  
ELLINGTON FLD MOCLDY 79 73 83 SE18 29.69F  
SUGAR LAND CLOUDY 80 75 84 S23G30 29.66S  
*HOUSTON EXEC CLOUDY 79 73 83 S16 29.66S HAZE  
*CLEVELAND MUN CLOUDY 78 74 85 S14G20 29.69S HAZE  
*WHARTON CLOUDY 78 73 82 SE18G26 29.64F  
*COLUMBUS CLOUDY 78 74 86 SE14G22 29.64R  
*EAGLE LAKE CLOUDY 79 76 90 S18G24 29.63F  

 
 
TXZ214>216-236>238-291000-  
THE UPPER TEXAS COAST  
 
CITY SKY/WX TMP DP RH WIND PRES REMARKS
 
*ORANGE CLOUDY 77 75 94 SE14G20 29.77F FOG  
PORT ARTHUR CLOUDY 78 74 87 SE25G35 29.73F  
GALVESTON CLOUDY 79 76 90 SE18G29 29.69F  
ANGLETON CLOUDY 80 75 84 SE18G29 29.65F  
*BAY CITY CLOUDY 79 75 89 SE14G23 29.64S FOG  
PALACIOS CLOUDY 78 75 90 SE17G26 29.63F  

 
 
TXZ229>234-239>247-291000-  
TEXAS COASTAL BEND AND RIO GRANDE PLAINS  
 
CITY SKY/WX TMP DP RH WIND PRES REMARKS
 
VICTORIA CLOUDY 80 74 81 SE24G31 29.61S  
*BEEVILLE CLOUDY 79 79 100 SE15G23 29.57F  
ROCKPORT CLOUDY 79 75 87 SE18G26 29.59F FOG  
*PORT ARANSAS CLOUDY 78 75 90 SE17G23 29.58F FOG  
*PORT LAVACA CLOUDY 78 76 94 SE21 29.62F FOG  
*INGLESIDE CLOUDY 80 76 85 SE17G26 29.58S FOG  
CORPUS CHRISTI CLOUDY 79 75 87 S23G35 29.57F  
CORPUS NAS CLOUDY 81 77 88 SE23G31 29.56F FOG  
*ROBSTOWN CLOUDY 81 74 79 SE22G31 29.56F  
ALICE CLOUDY 78 72 81 SE15 29.54F  
KINGSVILLE NAS CLOUDY 80 75 84 S24G33 29.55S  
COTULLA CLOUDY 78 70 76 SE14G21 29.52R  
*FAITH RANCH MOCLDY 77 72 83 SE8 29.50R  
LAREDO PTCLDY 76 72 87 SE17 29.48F  

 
 
TXZ248>255-291000-  
DEEP SOUTH TEXAS  
 
CITY SKY/WX TMP DP RH WIND PRES REMARKS
 
BROWNSVILLE CLOUDY 80 75 84 SE20G29 29.56F  
PORT ISABEL CLOUDY 78 75 90 SE20G32 29.54F FOG  
*SOUTH PADRE NOT AVBL  
HARLINGEN CLOUDY 77 76 96 SE21G26 29.53F FOG  
*HEBBRONVILLE CLOUDY 75 70 84 S17 29.54F HAZE  
MCALLEN CLOUDY 80 74 81 SE17G26 29.53F HAZE  
*WESLACO CLOUDY 77 74 88 S15G22 29.53S  
FALFURRIAS CLOUDY 79 73 82 SE12G17 29.54S  
EDINBURG CLOUDY 81 73 77 SE16G22 29.54S  
*ZAPATA MOCLDY 76 71 83 SE9G16 29.49F  

 
 
TXZ213>215-236>238-242>244-246-247-251-254-255-291000-  
CMAN STATIONS  
 
STATION/POSITION TIME TEMP WIND PRES WAVE
 
AIR SEA DIR/SP/G HT/PER  
(UTC) (F) (DEG/KT/KT) (MB) (FT/S)  
SABINE PASS 0842 77 78 130/ 19/ 25 1008.6  
SEA RIM ST PARK 0900 76 130/ 14/ 18 1007.5  
NORTH JETTY/GLS 0842 76 130/ 21/ 24 1005.4  
EAGLE POINT 0842 77 76 150/ 22/ 25 1005.0  
MORGANS POINT 0848 77 76 130/ 18/ 23 1005.1  
MISSION/ARANSAS 0800 79 1003.0  
PORT O'CONNOR 0842 78 150/ 21/ 30 1002.7  
PORT ARANSAS 0900 78 79 130/ 22/ 26 1001.3  
MALAQUITE BEACH 0848 78 79 130/ 26/ 34 1000.9  
BAFFIN BAY 0848 78 79 110/ 23/ 30 1000.7  
PORT ISABEL 0842 79 80 150/ 18/ 26 1000.9  

 
 
 
CLICK HERE TO GO TO PREVIOUS BULLETINS.

The Nexlab TX Page Main Text Page